User: anonymous   Login
Location: Unspecified
(0.0000°N, 0.0000°E)
Time: 11:29:46
(UTC+00:00)
Language:

NANOSAT C BR1 - Orbit

View from above orbital plane
View from above orbital plane
View from above satellite
View from above satellite

Ground track
Ground track

The orbit data is extracted from the following two-line orbital elements,

1 40024U 14033Q   20150.02968794  .00000251  00000-0  31900-4 0  9999
2 40024  97.9273  77.5902 0012316   3.3618 356.7680 14.90068198322865
Epoch (UTC): 29 May 2020 00:42:45
Eccentricity: 0.0012316
inclination: 97.9273°
perigee height: 589 km
apogee height: 606 km
right ascension of ascending node: 77.5902°
argument of perigee: 3.3618°
revolutions per day: 14.90068198
mean anomaly at epoch: 356.7680°
orbit number at epoch: 32286

The dashed part of the orbit path shows where the satellite is in the earth's shadow,  

DLR